Elwood, KS

9:34 PM CST on December 07, 2016 (GMT -0600)
Rosecrans Memorial

Weather History for KSTJ - September, 2011

Change the Weather History Date:

Thursday, September 22, 2011

  Actual Average Record
Temperature  
Mean Temperature 59 °F 64 °F  
Max Temperature 73 °F 77 °F 99 °F (1937)
Min Temperature 44 °F 51 °F 31 °F (1974)
Degree Days  
Heating Degree Days 6 4  
Month to date heating degree days 11 36  
Since 1 July heating degree days 11 41  
Cooling Degree Days 0 3  
Month to date cooling degree days 0 103  
Year to date cooling degree days 458 1180  
Growing Degree Days 8 (Base 50)    
Moisture  
Dew Point 47 °F    
Average Humidity 69    
Maximum Humidity 100    
Minimum Humidity 38    
Precipitation  
Precipitation 0.00 in 0.09 in 2.57 in (1970)
Month to date precipitation 0.00 2.70  
Year to date precipitation 13.83 29.00  
Snow  
Snow 0.00 in - - ()
Month to date snowfall 0.0  
Snow Depth 0.00 in    
Sea Level Pressure  
Sea Level Pressure 30.15 in    
Wind  
Wind Speed 3 mph (NNE)    
Max Wind Speed 10 mph    
Max Gust Speed 14 mph    
Visibility 9 miles    
Events      
T = Trace of Precipitation, MM = Missing Value Source: NWS Daily Summary

Daily Weather History Graph

Daily Weather History Graph

Search for Another Location

Airport or City:

Trip Planner

Search our weather history database for the weather conditions in past years. The results will help you decide how hot, cold, wet, or windy it might be!

Date:

Astronomy

Sep. 22, 2011 Rise Set
Actual Time 7:07 AM CDT 7:17 PM CDT
Civil Twilight 6:40 AM CDT 7:44 PM CDT
Nautical Twilight 6:08 AM CDT 8:15 PM CDT
Astronomical Twilight 5:36 AM CDT 8:47 PM CDT
Moon 1:29 AM CDT (9/22) 4:09 PM CDT (9/22)
Length of Visible Light 13h 03m
Length of Day
12h 10m
Waning Crescent, 28% of the Moon is Illuminated
Sep 22
Waning Crescent
Sep 27
New
Oct 3
First Quarter
Oct 11
Full
Oct 19
Last Quarter

Hourly Weather History & Observations

Time (CDT) Temp. Windchill Dew Point Humidity Pressure Visibility Wind Dir Wind Speed Gust Speed Precip Events Conditions
12:53 AM 50.0 °F - 48.0 °F 93% 30.15 in 10.0 mi Calm Calm - N/A   Clear
1:53 AM 48.9 °F - 46.9 °F 93% 30.16 in 10.0 mi Calm Calm - N/A   Clear
2:53 AM 46.0 °F - 45.0 °F 96% 30.15 in 10.0 mi Calm Calm - N/A   Clear
3:53 AM 46.9 °F - 46.0 °F 97% 30.14 in 10.0 mi Calm Calm - N/A   Clear
4:04 AM 46.4 °F - 46.4 °F 100% 30.15 in 10.0 mi Calm Calm - N/A   Partly Cloudy
4:53 AM 46.0 °F 44.8 °F 46.0 °F 100% 30.16 in 10.0 mi WNW 3.5 mph - N/A   Clear
5:53 AM 48.0 °F - 46.9 °F 96% 30.17 in 10.0 mi Calm Calm - N/A   Clear
6:53 AM 45.0 °F - 45.0 °F 100% 30.19 in 3.0 mi Calm Calm - N/A   Clear
6:58 AM 44.6 °F - 44.6 °F 100% 30.19 in 1.8 mi Calm Calm - N/A   Clear
7:07 AM 44.6 °F - 44.6 °F 100% 30.19 in 3.0 mi Calm Calm - N/A   Clear
7:53 AM 46.9 °F - 46.0 °F 97% 30.21 in 10.0 mi NW 4.6 mph - N/A   Clear
8:53 AM 52.0 °F - 48.9 °F 89% 30.22 in 10.0 mi Calm Calm - N/A   Clear
9:53 AM 55.9 °F - 50.0 °F 80% 30.22 in 10.0 mi Calm Calm - N/A   Clear
10:53 AM 60.1 °F - 48.9 °F 67% 30.21 in 10.0 mi Calm Calm - N/A   Clear
11:53 AM 64.0 °F - 48.9 °F 58% 30.19 in 10.0 mi Calm Calm - N/A   Clear
12:53 PM 66.9 °F - 45.0 °F 45% 30.17 in 10.0 mi Variable 3.5 mph - N/A   Clear
1:53 PM 66.9 °F - 45.0 °F 45% 30.14 in 10.0 mi NNW 9.2 mph - N/A   Partly Cloudy
2:53 PM 69.8 °F - 44.6 °F 40% 30.12 in 10.0 mi NW 3.5 mph - N/A   Clear
3:53 PM 73.0 °F - 46.0 °F 38% 30.09 in 10.0 mi NNE 4.6 mph - N/A   Clear
4:53 PM 71.1 °F - 46.9 °F 42% 30.08 in 10.0 mi Calm Calm - N/A   Clear
5:53 PM 69.1 °F - 48.0 °F 47% 30.08 in 10.0 mi NE 5.8 mph - N/A   Scattered Clouds
6:53 PM 66.0 °F - 48.0 °F 52% 30.09 in 10.0 mi ESE 3.5 mph - N/A   Scattered Clouds
7:53 PM 59.0 °F - 53.1 °F 81% 30.10 in 10.0 mi North 3.5 mph - N/A   Mostly Cloudy
8:53 PM 57.0 °F - 53.1 °F 87% 30.11 in 10.0 mi North 4.6 mph - N/A   Mostly Cloudy
9:53 PM 62.6 °F - 48.2 °F 59% 30.12 in 10.0 mi NE 8.1 mph - N/A   Mostly Cloudy
10:53 PM 60.1 °F - 48.0 °F 64% 30.12 in 10.0 mi NE 5.8 mph - N/A   Mostly Cloudy
11:53 PM 59.0 °F - 46.9 °F 64% 30.13 in 10.0 mi NE 5.8 mph - N/A   Mostly Cloudy